| time (UTC) | temp C | wind direction | speed KPH | gust KPH | rain 1hr cm | rain 24hr cm | rain mn cm | humidity % | barometer mb |
| 20260505093031 | 5 | 359 | 0.0 | 4.8 | 0.00 | 0.00 | 0.00 | 64 | 1009.3 |
| 20260505091518 | 6 | 359 | 4.8 | 8.0 | 0.00 | 0.00 | 0.00 | 61 | 1008.8 |
| 20260505090114 | 6 | 359 | 3.2 | 8.0 | 0.00 | 0.00 | 0.00 | 62 | 1008.5 |
| 20260505084552 | 6 | 359 | 4.8 | 9.7 | 0.00 | 0.00 | 0.00 | 61 | 1008.3 |
| 20260505083047 | 6 | 359 | 4.8 | 12.9 | 0.00 | 0.00 | 0.00 | 60 | 1008.0 |
| 20260505081554 | 6 | 359 | 4.8 | 9.7 | 0.00 | 0.00 | 0.00 | 60 | 1007.9 |
| 20260505080038 | 6 | 359 | 4.8 | 9.7 | 0.00 | 0.00 | 0.00 | 58 | 1008.2 |
| 20260505074510 | 7 | 359 | 6.4 | 14.5 | 0.00 | 0.00 | 0.00 | 58 | 1008.3 |
| 20260505073005 | 7 | 359 | 4.8 | 9.7 | 0.00 | 0.00 | 0.00 | 58 | 1007.9 |
| 20260505071506 | 7 | 359 | 4.8 | 9.7 | 0.00 | 0.00 | 0.00 | 58 | 1008.0 |
| 20260505064541 | 8 | 359 | 4.8 | 14.5 | 0.00 | 0.00 | 0.00 | 55 | 1008.1 |
| 20260505063039 | 8 | 359 | 8.0 | 17.7 | 0.00 | 0.00 | 0.00 | 53 | 1008.1 |
| 20260505061545 | 8 | 359 | 9.7 | 22.5 | 0.00 | 0.00 | 0.00 | 52 | 1008.0 |
| 20260505060007 | 9 | 359 | 14.5 | 30.6 | 0.00 | 0.00 | 0.00 | 50 | 1007.6 |
| 20260505054502 | 9 | 359 | 16.1 | 33.8 | 0.00 | 0.00 | 0.00 | 52 | 1007.4 |
| 20260505053101 | 10 | 359 | 16.1 | 29.0 | 0.00 | 0.00 | 0.00 | 52 | 1007.2 |
| 20260505051612 | 10 | 359 | 22.5 | 41.8 | 0.00 | 0.00 | 0.00 | 51 | 1007.1 |
| 20260505041514 | 11 | 359 | 20.9 | 32.2 | 0.00 | 0.00 | 0.00 | 48 | 1006.7 |
| 20260505040114 | 11 | 359 | 12.9 | 38.6 | 0.00 | 0.00 | 0.00 | 49 | 1006.6 |
| 20260505034551 | 11 | 359 | 20.9 | 33.8 | 0.00 | 0.00 | 0.00 | 50 | 1006.4 |
| 20260505033046 | 11 | 359 | 20.9 | 41.8 | 0.00 | 0.00 | 0.00 | 49 | 1006.2 |
| 20260505031541 | 12 | 359 | 20.9 | 45.1 | 0.00 | 0.00 | 0.00 | 49 | 1006.0 |
| 20260505030018 | 12 | 359 | 17.7 | 38.6 | 0.00 | 0.00 | 0.00 | 49 | 1005.9 |
| 20260505024512 | 13 | 359 | 24.1 | 41.8 | 0.00 | 0.00 | 0.00 | 47 | 1005.5 |
| 20260505023008 | 14 | 359 | 20.9 | 30.6 | 0.00 | 0.00 | 0.00 | 46 | 1004.8 |
| 20260505021503 | 14 | 359 | 17.7 | 40.2 | 0.00 | 0.00 | 0.00 | 44 | 1003.8 |
| 20260505020106 | 14 | 359 | 19.3 | 37.0 | 0.00 | 0.00 | 0.00 | 41 | 1003.3 |
| 20260505014540 | 14 | 359 | 20.9 | 35.4 | 0.00 | 0.00 | 0.00 | 41 | 1003.8 |
| 20260505013034 | 14 | 359 | 20.9 | 43.5 | 0.00 | 0.00 | 0.00 | 41 | 1003.5 |
| 20260505011532 | 15 | 359 | 20.9 | 32.2 | 0.00 | 0.00 | 0.00 | 41 | 1003.1 |
| 20260505010005 | 15 | 359 | 25.7 | 46.7 | 0.00 | 0.00 | 0.00 | 39 | 1003.0 |
| 20260505004605 | 16 | 359 | 17.7 | 43.5 | 0.00 | 0.00 | 0.00 | 39 | 1002.9 |
| 20260505003100 | 16 | 359 | 20.9 | 45.1 | 0.00 | 0.00 | 0.00 | 39 | 1002.7 |
| 20260505001603 | 16 | 359 | 22.5 | 40.2 | 0.00 | 0.00 | 0.00 | 38 | 1002.6 |
| 20260505000049 | 16 | 359 | 16.1 | 33.8 | 0.00 | 0.00 | 0.00 | 37 | 1002.5 |
| 20260504234530 | 17 | 359 | 25.7 | 41.8 | 0.00 | 0.00 | 0.00 | 34 | 1002.5 |
| 20260504233021 | 18 | 359 | 19.3 | 49.9 | 0.00 | 0.00 | 0.00 | 34 | 1002.3 |
| 20260504231515 | 18 | 359 | 19.3 | 49.9 | 0.00 | 0.00 | 0.00 | 35 | 1002.2 |
| 20260504230115 | 19 | 359 | 22.5 | 51.5 | 0.00 | 0.00 | 0.00 | 35 | 1001.9 |
| 20260504224552 | 20 | 359 | 29.0 | 61.2 | 0.00 | 0.00 | 0.00 | 36 | 1001.6 |
| 20260504223049 | 21 | 359 | 24.1 | 54.7 | 0.00 | 0.00 | 0.00 | 35 | 1001.1 |
| 20260504221546 | 21 | 359 | 29.0 | 51.5 | 0.00 | 0.00 | 0.00 | 35 | 1000.7 |
| 20260504220023 | 21 | 359 | 32.2 | 49.9 | 0.00 | 0.00 | 0.00 | 33 | 1000.5 |
| 20260504214517 | 22 | 359 | 27.4 | 45.1 | 0.00 | 0.00 | 0.00 | 34 | 1000.1 |
| 20260504213017 | 22 | 359 | 27.4 | 48.3 | 0.00 | 0.00 | 0.00 | 34 | 1000.1 |
| 20260504211507 | 23 | 359 | 19.3 | 43.5 | 0.00 | 0.00 | 0.00 | 34 | 999.9 |
| 20260504210109 | 23 | 359 | 29.0 | 48.3 | 0.00 | 0.00 | 0.00 | 33 | 999.6 |
| 20260504204549 | 23 | 359 | 29.0 | 51.5 | 0.00 | 0.00 | 0.00 | 33 | 999.6 |
| 20260504203053 | 24 | 359 | 32.2 | 49.9 | 0.00 | 0.00 | 0.00 | 36 | 999.4 |
| 20260504201533 | 24 | 359 | 25.7 | 53.1 | 0.00 | 0.00 | 0.00 | 38 | 999.2 |
| 20260504200011 | 25 | 359 | 24.1 | 45.1 | 0.00 | 0.00 | 0.00 | 39 | 999.1 |
| 20260504194507 | 25 | 359 | 19.3 | 45.1 | 0.00 | 0.00 | 0.00 | 38 | 999.1 |
| 20260504193010 | 25 | 359 | 19.3 | 49.9 | 0.00 | 0.00 | 0.00 | 40 | 999.0 |
| 20260504191602 | 26 | 359 | 17.7 | 38.6 | 0.00 | 0.00 | 0.00 | 37 | 998.7 |
| 20260504190128 | 26 | 359 | 29.0 | 41.8 | 0.00 | 0.00 | 0.00 | 34 | 998.8 |
| 20260504184535 | 26 | 359 | 24.1 | 43.5 | 0.00 | 0.00 | 0.00 | 35 | 998.8 |
| 20260504183033 | 26 | 359 | 20.9 | 37.0 | 0.00 | 0.00 | 0.00 | 35 | 998.9 |
| 20260504181524 | 26 | 359 | 27.4 | 51.5 | 0.00 | 0.00 | 0.00 | 34 | 999.0 |
| 20260504180004 | 26 | 359 | 16.1 | 41.8 | 0.00 | 0.00 | 0.00 | 35 | 998.9 |
| 20260504174610 | 26 | 359 | 17.7 | 61.2 | 0.00 | 0.00 | 0.00 | 35 | 999.0 |
| 20260504173058 | 25 | 359 | 20.9 | 43.5 | 0.00 | 0.00 | 0.00 | 35 | 999.0 |
| 20260504171551 | 25 | 359 | 22.5 | 46.7 | 0.00 | 0.00 | 0.00 | 35 | 999.2 |
| 20260504160115 | 23 | 359 | 16.1 | 41.8 | 0.00 | 0.00 | 0.00 | 38 | 999.8 |
| 20260504140106 | 18 | 359 | 12.9 | 38.6 | 0.00 | 0.00 | 0.00 | 51 | 1001.3 |
| 20260504110121 | 8 | 359 | 3.2 | 8.0 | 0.00 | 0.00 | 0.00 | 68 | 1002.5 |